EW6140 Weather Reports


time (UTC)temp
C
wind
direction
speed
KPH
gust
KPH
rain 1hr
cm
rain 24hr
cm
rain mn
cm
humidity
%
barometer
mb
20260904175558 23 0 0.0 6.4 0.00 0.00 0.00 66 1015.6
20260904175058 22 0 0.0 6.4 0.00 0.00 0.00 67 1015.7
20260904174604 22 323 0.0 6.4 0.00 0.00 0.00 63 1015.8
20260904174057 22 0 0.0 6.4 0.00 0.00 0.00 67 1015.7
20260904173556 22 0 1.6 6.4 0.00 0.00 0.00 65 1015.8
20260904173104 23 0 0.0 8.0 0.00 0.00 0.00 64 1015.7
20260904172559 23 0 0.0 8.0 0.00 0.00 0.00 65 1015.8
20260904172104 23 0 0.0 6.4 0.00 0.00 0.00 67 1015.8
20260904171606 23 0 0.0 6.4 0.00 0.00 0.00 64 1016.0
20260904171058 23 0 0.0 4.8 0.00 0.00 0.00 66 1015.8
20260904170601 23 0 0.0 4.8 0.00 0.00 0.00 69 1015.9
20260904170105 23 0 0.0 3.2 0.00 0.00 0.00 69 1015.9
20260904165556 23 0 0.0 6.4 0.00 0.00 0.00 67 1015.9
20260904165059 23 0 0.0 8.0 0.00 0.00 0.00 69 1015.8
20260904164606 23 0 1.6 8.0 0.00 0.00 0.00 65 1015.8
20260904164059 23 0 0.0 8.0 0.00 0.00 0.00 67 1016.0
20260904163556 23 0 0.0 0.0 0.00 0.00 0.00 67 1016.0
20260904163104 23 0 0.0 1.6 0.00 0.00 0.00 69 1015.9
20260904162556 22 0 0.0 1.6 0.00 0.00 0.00 72 1015.9
20260904162058 22 0 0.0 4.8 0.00 0.00 0.00 75 1015.9
20260904161602 22 0 0.0 4.8 0.00 0.00 0.00 73 1015.9
20260904161059 22 0 0.0 4.8 0.00 0.00 0.00 70 1015.8
20260904160559 22 0 0.0 0.0 0.00 0.00 0.00 69 1015.9
20260904155559 22 0 0.0 8.0 0.00 0.00 0.00 71 1015.7
20260904155055 22 342 0.0 3.2 0.00 0.00 0.00 74 1015.8
20260904154604 22 0 0.0 6.4 0.00 0.00 0.00 70 1015.9
20260904154055 22 0 0.0 6.4 0.00 0.00 0.00 71 1016.0
20260904153555 22 0 0.0 6.4 0.00 0.00 0.00 72 1016.0
20260904153106 22 0 0.0 4.8 0.00 0.00 0.00 74 1015.9
20260904152555 21 0 0.0 6.4 0.00 0.00 0.00 76 1016.0
20260904152059 21 350 0.0 6.4 0.00 0.00 0.00 78 1016.1
20260904151606 21 0 0.0 6.4 0.00 0.00 0.00 75 1016.0
20260904151056 22 0 0.0 3.2 0.00 0.00 0.00 73 1016.1
20260904150559 22 0 0.0 3.2 0.00 0.00 0.00 71 1016.1
20260904150105 22 0 0.0 3.2 0.00 0.00 0.00 77 1016.1
20260904145558 22 0 0.0 0.0 0.00 0.00 0.00 74 1016.0
20260904145059 22 0 0.0 0.0 0.00 0.00 0.00 77 1016.0
20260904144603 22 0 0.0 3.2 0.00 0.00 0.00 81 1016.0
20260904144059 21 0 0.0 3.2 0.00 0.00 0.00 76 1016.0
20260904143558 22 0 0.0 3.2 0.00 0.00 0.00 76 1016.1
20260904143102 21 0 0.0 3.2 0.00 0.00 0.00 79 1016.0
20260904142555 21 0 0.0 3.2 0.00 0.00 0.00 80 1016.1
20260904142059 21 0 0.0 3.2 0.00 0.00 0.00 78 1016.2
20260904141628 21 0 0.0 3.2 0.00 0.00 0.00 80 1016.0
20260904141058 21 0 0.0 3.2 0.00 0.00 0.00 79 1016.0
20260904140555 21 0 0.0 0.0 0.00 0.00 0.00 80 1016.0
20260904140106 21 0 0.0 0.0 0.00 0.00 0.00 82 1016.2
20260904135559 20 0 0.0 4.8 0.00 0.00 0.00 82 1016.2
20260904135054 20 0 0.0 4.8 0.00 0.00 0.00 83 1016.2
20260904134605 20 0 0.0 4.8 0.00 0.00 0.00 84 1016.3
20260904134056 20 0 0.0 4.8 0.00 0.00 0.00 84 1016.3
20260904133556 20 0 0.0 3.2 0.00 0.00 0.00 84 1016.2
20260904133104 20 0 0.0 4.8 0.00 0.00 0.00 84 1015.8
20260904132558 20 0 0.0 4.8 0.00 0.00 0.00 86 1015.9
20260904132100 19 0 0.0 0.0 0.00 0.00 0.00 87 1016.0
20260904131636 19 0 0.0 0.0 0.00 0.00 0.00 87 1015.8
20260904131055 18 0 0.0 0.0 0.00 0.00 0.00 88 1015.9
20260904130558 18 0 0.0 0.0 0.00 0.00 0.00 88 1015.9
20260904130104 18 0 0.0 0.0 0.00 0.00 0.00 88 1016.0
20260904125556 18 0 0.0 0.0 0.00 0.00 0.00 88 1016.0
20260904125056 18 0 0.0 0.0 0.00 0.00 0.00 89 1016.0
20260904124602 18 0 0.0 4.8 0.00 0.00 0.00 89 1016.1
20260904124055 18 0 0.0 4.8 0.00 0.00 0.00 89 1016.1
20260904123555 18 0 1.6 4.8 0.00 0.00 0.00 89 1016.2
20260904123111 17 5 0.0 8.0 0.00 0.00 0.00 89 1016.1
20260904122559 17 0 0.0 8.0 0.00 0.00 0.00 89 1016.1
20260904122059 17 0 0.0 0.0 0.00 0.00 0.00 90 1016.1
20260904121603 17 0 0.0 0.0 0.00 0.00 0.00 90 1016.0
20260904121058 17 0 0.0 0.0 0.00 0.00 0.00 91 1015.9
20260904120602 -17 0.0 0.0 0.00 0.00 0.00 1015.9
20260904120107 -17 0.0 0.0 0.00 0.00 0.00 1016.0
20260904115558 -17 0.0 0.0 0.00 0.00 0.00 1016.0
20260904115055 -17 0.0 0.0 0.00 0.00 0.00 1016.0
20260904114604 -17 0.0 0.0 0.00 0.00 0.00 1016.1
20260904114057 -17 0.0 0.0 0.00 0.00 0.00 1016.0
20260904113555 -17 0.0 0.0 0.00 0.00 0.00 1016.0
20260904113105 -17 0.0 0.0 0.00 0.00 0.00 1015.9
20260904112558 -17 0.0 0.0 0.00 0.00 0.00 1015.8
20260904112055 -17 0.0 0.0 0.00 0.00 0.00 1015.8
20260904111607 -17 0.0 0.0 0.00 0.00 0.00 1015.7
20260904111058 -17 0.0 0.0 0.00 0.00 0.00 1015.7
20260904110558 -17 0.0 0.0 0.00 0.00 0.00 1015.6
20260904110105 -17 0.0 0.0 0.00 0.00 0.00 1015.7
20260904105555 -17 0.0 0.0 0.00 0.00 0.00 1015.6
20260904105056 -17 0.0 0.0 0.00 0.00 0.00 1015.6
20260904104612 -17 0.0 0.0 0.00 0.00 0.00 1015.5
20260904104055 -17 0.0 0.0 0.00 0.00 0.00 1015.5
20260904103555 -17 0.0 0.0 0.00 0.00 0.00 1015.4
20260904103107 -17 0.0 0.0 0.00 0.00 0.00 1015.3
20260904102559 -17 0.0 0.0 0.00 0.00 0.00 1015.2
20260904102058 -17 0.0 0.0 0.00 0.00 0.00 1015.1
20260904101605 -17 0.0 0.0 0.00 0.00 0.00 1015.2
20260904101059 -17 0.0 0.0 0.00 0.00 0.00 1015.2
20260904100555 -17 0.0 0.0 0.00 0.00 0.00 1015.0
20260904100107 -17 0.0 0.0 0.00 0.00 0.00 1015.0
20260904095556 -17 0.0 0.0 0.00 0.00 0.00 1015.1
20260904095056 -17 0.0 0.0 0.00 0.00 0.00 1015.2
20260904094605 -17 0.0 0.0 0.00 0.00 0.00 1015.1
20260904094055 -17 0.0 0.0 0.00 0.00 0.00 1015.1
20260904093555 -17 0.0 0.0 0.00 0.00 0.00 1015.1
20260904093103 -17 0.0 0.0 0.00 0.00 0.00 1015.1
20260904092558 -17 0.0 0.0 0.00 0.00 0.00 1015.0
20260904092103 -17 0.0 0.0 0.00 0.00 0.00 1015.1
20260904091601 -17 0.0 0.0 0.00 0.00 0.00 1015.1
20260904091058 -17 0.0 0.0 0.00 0.00 0.00 1015.0
20260904090558 -17 0.0 0.0 0.00 0.00 0.00 1014.9
20260904090059 -17 0.0 0.0 0.00 0.00 0.00 1014.9
20260904085555 -17 0.0 0.0 0.00 0.00 0.00 1014.8
20260904085055 -17 0.0 0.0 0.00 0.00 0.00 1014.7
20260904084604 -17 0.0 0.0 0.00 0.00 0.00 1014.7
20260904084055 -17 0.0 0.0 0.00 0.00 0.00 1014.6
20260904083555 -17 0.0 0.0 0.00 0.00 0.00 1014.6
20260904083105 -17 0.0 0.0 0.00 0.00 0.00 1014.6
20260904082557 -17 0.0 0.0 0.00 0.00 0.00 1014.6
20260904082055 -17 0.0 0.0 0.00 0.00 0.00 1014.4
20260904081601 -17 0.0 0.0 0.00 0.00 0.00 1014.6
20260904081056 -17 0.0 0.0 0.00 0.00 0.00 1014.6
20260904080556 -17 0.0 0.0 0.00 0.00 0.00 1014.5
20260904080114 -17 0.0 0.0 0.00 0.00 0.00 1014.4
20260904075557 -17 0.0 0.0 0.00 0.00 0.00 1014.4
20260904075055 -17 0.0 0.0 0.00 0.00 0.00 1014.4
20260904074636 -17 0.0 0.0 0.00 0.00 0.00 1014.4
20260904074055 -17 0.0 0.0 0.00 0.00 0.00 1014.4
20260904073559 -17 0.0 0.0 0.00 0.00 0.00 1014.3
20260904073104 -17 0.0 0.0 0.00 0.00 0.00 1014.3
20260904072559 -17 0.0 0.0 0.00 0.00 0.00 1014.1
20260904072058 -17 0.0 0.0 0.00 0.00 0.00 1014.2
20260904071602 -17 0.0 0.0 0.00 0.00 0.00 1014.3
20260904071058 -17 0.0 0.0 0.00 0.00 0.00 1014.2
20260904070602 -17 0.0 0.0 0.00 0.00 0.00 1014.2
20260904070059 -17 0.0 0.0 0.00 0.00 0.00 1014.3
20260904065559 -17 0.0 0.0 0.00 0.00 0.00 1014.2
20260904065058 -17 0.0 0.0 0.00 0.00 0.00 1014.4
20260904064604 -17 0.0 0.0 0.00 0.00 0.00 1014.3
20260904064057 -17 0.0 0.0 0.00 0.00 0.00 1014.3
20260904063557 -17 0.0 0.0 0.00 0.00 0.00 1014.3
20260904063112 -17 0.0 0.0 0.00 0.00 0.00 1014.4
20260904062600 -17 0.0 0.0 0.00 0.00 0.00 1014.5
20260904062057 -17 0.0 0.0 0.00 0.00 0.00 1014.4
20260904061603 -17 0.0 0.0 0.00 0.00 0.00 1014.5
20260904061058 -17 0.0 0.0 0.00 0.00 0.00 1014.6
20260904060558 -17 0.0 0.0 0.00 0.00 0.00 1014.6
20260904060114 -17 0.0 0.0 0.00 0.00 0.00 1014.6
20260904055557 -17 0.0 0.0 0.00 0.00 0.00 1014.7
20260904055057 -17 0.0 0.0 0.00 0.00 0.00 1014.7
20260904054608 -17 0.0 0.0 0.00 0.00 0.00 1014.9
20260904054058 -17 0.0 0.0 0.00 0.00 0.00 1015.0
20260904053558 -17 0.0 0.0 0.00 0.00 0.00 1015.0
20260904053101 -17 0.0 0.0 0.00 0.00 0.00 1015.0
20260904052558 -17 0.0 0.0 0.00 0.00 0.00 1015.0
20260904052058 -17 0.0 0.0 0.00 0.00 0.00 1015.2
20260904051604 -17 0.0 0.0 0.00 0.00 0.00 1015.2
20260904051057 -17 0.0 0.0 0.00 0.00 0.00 1015.2
20260904050557 -17 0.0 0.0 0.00 0.00 0.00 1015.2
20260904045557 -17 0.0 0.0 0.00 0.00 0.00 1015.3
20260904045059 -17 0.0 0.0 0.00 0.00 0.00 1015.3
20260904044607 -17 0.0 0.0 0.00 0.00 0.00 1015.3
20260904044101 -17 0.0 0.0 0.00 0.00 0.00 1015.3
20260904043557 -17 0.0 0.0 0.00 0.00 0.00 1015.3
20260904043100 -17 0.0 0.0 0.00 0.00 0.00 1015.3
20260904042557 -17 0.0 0.0 0.00 0.00 0.00 1015.3
20260904042057 -17 0.0 0.0 0.00 0.00 0.00 1015.4
20260904041601 -17 0.0 0.0 0.00 0.00 0.00 1015.2
20260904041058 -17 0.0 0.0 0.00 0.00 0.00 1015.1
20260904040601 -17 0.0 0.0 0.00 0.00 0.00 1015.1
20260904040106 -17 0.0 0.0 0.00 0.00 0.00 1015.0
20260904035557 -17 0.0 0.0 0.00 0.00 0.00 1015.1
20260904035058 -17 0.0 0.0 0.00 0.00 0.00 1015.0
20260904034612 -17 0.0 0.0 0.00 0.00 0.00 1015.0
20260904034058 -17 0.0 0.0 0.00 0.00 0.00 1015.0
20260904033558 -17 0.0 0.0 0.00 0.00 0.00 1015.0
20260904033116 -17 0.0 0.0 0.00 0.00 0.00 1015.0
20260904032557 -17 0.0 0.0 0.00 0.00 0.00 1015.0
20260904032057 -17 0.0 0.0 0.00 0.00 0.00 1015.1
20260904031607 -17 0.0 0.0 0.00 0.00 0.00 1015.1
20260904031057 -17 0.0 0.0 0.00 0.00 0.00 1015.2
20260904030601 -17 0.0 0.0 0.00 0.00 0.00 1015.3
20260904030116 -17 0.0 0.0 0.00 0.00 0.00 1015.4
20260904025559 -17 0.0 0.0 0.00 0.00 0.00 1015.4
20260904025058 -17 0.0 0.0 0.00 0.00 0.00 1015.5
20260904024609 -17 0.0 0.0 0.00 0.00 0.00 1015.4
20260904024101 -17 0.0 0.0 0.00 0.00 0.00 1015.5
20260904023557 -17 0.0 0.0 0.00 0.00 0.00 1015.4
20260904023108 -17 0.0 0.0 0.00 0.00 0.00 1015.4
20260904022557 -17 0.0 0.0 0.00 0.00 0.00 1015.4
20260904022057 -17 0.0 0.0 0.00 0.00 0.00 1015.4
20260904021601 -17 0.0 0.0 0.00 0.00 0.00 1015.6
20260904021057 -17 0.0 0.0 0.00 0.00 0.00 1015.4
20260904020557 -17 0.0 0.0 0.00 0.00 0.00 1015.7
20260904020101 -17 0.0 0.0 0.00 0.00 0.00 1015.9
20260904015559 -17 0.0 0.0 0.00 0.00 0.00 1015.9
20260904015058 -17 0.0 0.0 0.00 0.00 0.00 1015.8
20260904014616 -17 0.0 0.0 0.00 0.00 0.00 1015.7
20260904014058 -17 0.0 0.0 0.00 0.00 0.00 1015.8
20260904013601 -17 0.0 0.0 0.00 0.00 0.00 1015.7
20260904013102 -17 0.0 0.0 0.00 0.00 0.00 1015.7
20260904012557 -17 0.0 0.0 0.00 0.00 0.00 1015.7
20260904012059 -17 0.0 0.0 0.00 0.00 0.00 1015.7
20260904011601 -17 0.0 0.0 0.00 0.00 0.00 1015.8
20260904011058 -17 0.0 0.0 0.00 0.00 0.00 1015.7
20260904010558 -17 0.0 0.0 0.00 0.00 0.00 1015.8
20260904010104 -17 0.0 0.0 0.00 0.00 0.00 1015.8
20260904005557 -17 0.0 0.0 0.00 0.00 0.00 1015.9
20260904005058 -17 0.0 0.0 0.00 0.00 0.00 1015.8
20260904004604 -17 0.0 0.0 0.00 0.00 0.00 1015.8
20260904004055 -17 0.0 0.0 0.00 0.00 0.00 1015.6
20260904003554 -17 0.0 0.0 0.00 0.00 0.00 1015.6
20260904003103 -17 0.0 0.0 0.00 0.00 0.00 1015.5
20260904002557 -17 0.0 0.0 0.00 0.00 0.00 1015.6
20260904002100 -17 0.0 0.0 0.00 0.00 0.00 1015.6
20260904001602 -17 0.0 0.0 0.00 0.00 0.00 1015.4
20260904001055 -17 0.0 0.0 0.00 0.00 0.00 1015.4
20260904000555 -17 0.0 0.0 0.00 0.00 0.00 1015.4
20260904000136 -17 0.0 0.0 0.00 0.00 0.00 1015.2
20260903235556 -17 0.0 0.0 0.00 0.00 0.00 1015.3
20260903235059 -17 0.0 0.0 0.00 0.00 0.00 1015.4
20260903234605 -17 0.0 0.0 0.00 0.00 0.00 1015.4
20260903234057 -17 0.0 0.0 0.00 0.00 0.00 1015.3
20260903233556 -17 0.0 0.0 0.00 0.00 0.00 1015.3
20260903233107 -17 0.0 0.0 0.00 0.00 0.00 1015.3
20260903232555 -17 0.0 0.0 0.00 0.00 0.00 1015.3
20260903232055 -17 0.0 0.0 0.00 0.00 0.00 1015.2
20260903231602 22 0.0 0.0 0.00 0.00 0.00 85 1015.2
20260903231055 22 0 0.0 0.0 0.00 0.00 0.00 85 1015.3
20260903230555 22 0 0.0 0.0 0.00 0.00 0.00 85 1015.3
20260903230113 22 0 0.0 0.0 0.00 0.00 0.00 85 1015.4
20260903225556 22 0 0.0 0.0 0.00 0.00 0.00 85 1015.1
20260903225055 22 0 0.0 0.0 0.00 0.00 0.00 85 1015.1
20260903224610 22 0 0.0 0.0 0.00 0.00 0.00 84 1015.0
20260903224055 22 0 0.0 0.0 0.00 0.00 0.00 84 1015.0
20260903223555 23 0 0.0 0.0 0.00 0.00 0.00 84 1014.9
20260903223101 23 0 0.0 0.0 0.00 0.00 0.00 84 1014.9
20260903222557 23 0 0.0 0.0 0.00 0.00 0.00 83 1014.9
20260903222059 23 0 0.0 0.0 0.00 0.00 0.00 82 1015.0
20260903221602 23 0 0.0 0.0 0.00 0.00 0.00 83 1015.0
20260903221055 23 0 0.0 0.0 0.00 0.00 0.00 81 1014.9
20260903220556 23 0 0.0 0.0 0.00 0.00 0.00 82 1015.1
20260903220120 23 0 0.0 0.0 0.00 0.00 0.00 82 1015.0
20260903215603 23 0 0.0 0.0 0.00 0.00 0.00 81 1015.1
20260903215059 23 0 0.0 0.0 0.00 0.00 0.00 80 1015.1
20260903214611 23 0 0.0 0.0 0.00 0.00 0.00 82 1015.1
20260903214059 23 0 0.0 0.0 0.00 0.00 0.00 82 1015.0
20260903213603 24 0 0.0 0.0 0.00 0.00 0.00 82 1014.9
20260903213105 24 0 0.0 0.0 0.00 0.00 0.00 81 1014.9
20260903212557 24 0 0.0 0.0 0.00 0.00 0.00 78 1015.0
20260903212059 24 0 0.0 0.0 0.00 0.00 0.00 77 1014.9
20260903211621 23 0 0.0 1.6 0.00 0.00 0.00 75 1015.0
20260903211100 24 0 0.0 1.6 0.00 0.00 0.00 74 1015.1
20260903210559 24 0 0.0 0.0 0.00 0.00 0.00 75 1015.1
20260903210108 24 0 0.0 0.0 0.00 0.00 0.00 74 1015.2
20260903205558 24 0 0.0 0.0 0.00 0.00 0.00 74 1015.3
20260903205059 24 0 0.0 0.0 0.00 0.00 0.00 74 1015.4
20260903204603 24 0 0.0 1.6 0.00 0.00 0.00 75 1015.4
20260903204058 25 0 0.0 6.4 0.00 0.00 0.00 71 1015.4
20260903203558 25 0 0.0 6.4 0.00 0.00 0.00 70 1015.3
20260903203104 25 350 0.0 6.4 0.00 0.00 0.00 67 1015.3
20260903202559 25 0 0.0 3.2 0.00 0.00 0.00 70 1015.4
20260903202059 25 0 0.0 0.0 0.00 0.00 0.00 68 1015.3
20260903201605 25 0 0.0 0.0 0.00 0.00 0.00 67 1015.3
20260903201059 25 0 0.0 0.0 0.00 0.00 0.00 68 1015.3
20260903200559 25 0 0.0 0.0 0.00 0.00 0.00 68 1015.3
20260903195558 24 0 0.0 0.0 0.00 0.00 0.00 73 1015.3
20260903195059 24 0 0.0 0.0 0.00 0.00 0.00 72 1015.4
20260903194605 24 0 0.0 3.2 0.00 0.00 0.00 74 1015.3
20260903194057 24 0 0.0 3.2 0.00 0.00 0.00 71 1015.6
20260903193603 25 0 0.0 1.6 0.00 0.00 0.00 73 1015.6
20260903193103 25 0 0.0 1.6 0.00 0.00 0.00 73 1015.5
20260903192559 25 0 0.0 3.2 0.00 0.00 0.00 72 1015.6
20260903192059 25 0 0.0 3.2 0.00 0.00 0.00 69 1015.7
20260903191605 25 0 0.0 0.0 0.00 0.00 0.00 69 1015.7
20260903191056 25 0 0.0 0.0 0.00 0.00 0.00 73 1015.7
20260903190559 25 0 0.0 0.0 0.00 0.00 0.00 69 1015.7
20260903190104 25 0 0.0 0.0 0.00 0.00 0.00 69 1015.7
20260903185556 25 0 0.0 6.4 0.00 0.00 0.00 66 1015.8
20260903185056 25 0 0.0 6.4 0.00 0.00 0.00 69 1015.8
20260903184609 25 180 0.0 4.8 0.00 0.00 0.00 65 1015.9
20260903184056 25 0 0.0 4.8 0.00 0.00 0.00 67 1015.9
20260903183555 25 0 0.0 4.8 0.00 0.00 0.00 68 1015.7
20260903183106 25 0 0.0 4.8 0.00 0.00 0.00 76 1015.7
20260903182554 24 0 0.0 4.8 0.00 0.00 0.00 75 1015.8
20260903182057 23 0 0.0 4.8 0.00 0.00 0.00 77 1016.0
20260903181602 23 0 0.0 4.8 0.00 0.00 0.00 72 1015.8
20260903181057 24 0 0.0 3.2 0.00 0.00 0.00 75 1015.8
20260903180557 24 0 0.0 3.2 0.00 0.00 0.00 77 1015.8
20260903180112 24 0 0.0 0.0 0.00 0.00 0.00 79 1015.8